Kimball, NE

8:19 PM MDT on September 19, 2017 (GMT -0600)
Kimball Municipal-Arraj

Weather History for KIBM - January, 2013

Change the Weather History Date:

Sunday, January 20, 2013

  Actual Average (KSNY) Record (KSNY)
Temperature  
Mean Temperature 28 °F -  
Max Temperature 40 °F 37 °F 68 °F (1971)
Min Temperature 16 °F 14 °F -16 °F (1984)
Degree Days  
Heating Degree Days 37    
Moisture  
Dew Point 14 °F    
Average Humidity 56    
Maximum Humidity 87    
Minimum Humidity 31    
Precipitation  
Precipitation 0.00 in - - ()
Sea Level Pressure  
Sea Level Pressure 30.19 in    
Wind  
Wind Speed 9 mph (NW)    
Max Wind Speed 23 mph    
Max Gust Speed 30 mph    
Visibility 10 miles    
Events      
Averages and records for this station are not official NWS values.
T = Trace of Precipitation, MM = Missing Value Source: NWS Daily Summary

Daily Weather History Graph

Daily Weather History Graph

Search for Another Location

Airport or City:

Trip Planner

Search our weather history database for the weather conditions in past years. The results will help you decide how hot, cold, wet, or windy it might be!

Date:

Astronomy

Jan. 20, 2013 Rise Set
Actual Time 8:15 AM CST 5:57 PM CST
Civil Twilight 7:45 AM CST 6:27 PM CST
Nautical Twilight 7:11 AM CST 7:00 PM CST
Astronomical Twilight 6:38 AM CST 7:33 PM CST
Moon 12:59 PM CST 2:49 AM CST
Length of Visible Light 10h 41m
Length of Day
9h 41m
Waxing Gibbous, 66% of the Moon is Illuminated
Jan 20
Waxing Gibbous
Jan 26
Full
Feb 3
Last Quarter
Feb 10
New
Feb 17
First Quarter

Hourly Weather History & Observations

Time (CST) Temp. Windchill Dew Point Humidity Pressure Visibility Wind Dir Wind Speed Gust Speed Precip Events Conditions
12:15 AM 26.6 °F 21.2 °F 13.1 °F 57% 30.15 in 10.0 mi SW 4.6 mph - N/A   Clear
12:35 AM 26.2 °F 18.6 °F 12.9 °F 57% 30.14 in 10.0 mi SW 6.9 mph - N/A   Clear
12:55 AM 25.2 °F 16.5 °F 12.2 °F 58% 30.13 in 10.0 mi SSW 8.1 mph - N/A   Clear
1:15 AM 27.5 °F 19.3 °F 13.5 °F 56% 30.13 in 10.0 mi South 8.1 mph - N/A   Clear
1:35 AM 27.9 °F 17.8 °F 14.2 °F 57% 30.12 in 10.0 mi South 11.5 mph - N/A   Clear
1:55 AM 27.5 °F 16.8 °F 18.0 °F 67% 30.12 in 10.0 mi South 12.7 mph - N/A   Clear
2:15 AM 27.3 °F 17.1 °F 19.2 °F 72% 30.11 in 10.0 mi South 11.5 mph - N/A   Clear
2:35 AM 25.3 °F 21.1 °F 18.1 °F 74% 30.12 in 10.0 mi ESE 3.5 mph - N/A   Clear
2:55 AM 26.1 °F - 19.4 °F 76% 30.12 in 10.0 mi Calm Calm - N/A   Clear
3:15 AM 24.6 °F - 18.1 °F 76% 30.12 in 10.0 mi Calm Calm - N/A   Clear
3:35 AM 24.1 °F 16.0 °F 17.1 °F 75% 30.12 in 10.0 mi West 6.9 mph - N/A   Clear
3:55 AM 22.1 °F 14.7 °F 15.6 °F 76% 30.12 in 10.0 mi NW 5.8 mph - N/A   Clear
4:15 AM 23.9 °F 15.8 °F 15.6 °F 71% 30.12 in 10.0 mi NW 6.9 mph - N/A   Clear
4:35 AM 21.7 °F - 13.5 °F 70% 30.11 in 10.0 mi Calm Calm - N/A   Clear
4:55 AM 23.0 °F - 13.5 °F 67% 30.10 in 10.0 mi Calm Calm - N/A   Clear
5:15 AM 22.8 °F 18.2 °F 13.3 °F 67% 30.10 in 10.0 mi West 3.5 mph - N/A   Clear
5:35 AM 22.5 °F - 13.8 °F 69% 30.10 in 10.0 mi Calm Calm - N/A   Clear
5:55 AM 21.2 °F 13.6 °F 13.1 °F 71% 30.10 in 10.0 mi West 5.8 mph - N/A   Clear
6:15 AM 20.3 °F 13.8 °F 12.7 °F 73% 30.11 in 10.0 mi West 4.6 mph - N/A   Clear
6:35 AM 20.3 °F 11.5 °F 13.1 °F 74% 30.11 in 10.0 mi West 6.9 mph - N/A   Clear
6:55 AM 21.4 °F 11.1 °F 12.7 °F 69% 30.13 in 10.0 mi WNW 9.2 mph - N/A   Clear
7:15 AM 32.0 °F 21.2 °F 12.2 °F 44% 30.13 in 10.0 mi WNW 16.1 mph - N/A   Clear
7:35 AM 32.7 °F 22.5 °F 10.8 °F 40% 30.14 in 10.0 mi WNW 15.0 mph - N/A   Clear
7:55 AM 32.0 °F 22.1 °F 10.4 °F 41% 30.14 in 10.0 mi WNW 13.8 mph - N/A   Clear
8:15 AM 33.1 °F 23.9 °F 10.4 °F 39% 30.16 in 10.0 mi NW 12.7 mph - N/A   Clear
8:35 AM 34.9 °F 26.2 °F 9.3 °F 35% 30.17 in 10.0 mi NW 12.7 mph - N/A   Clear
8:55 AM 34.7 °F 26.4 °F 9.3 °F 35% 30.19 in 10.0 mi NW 11.5 mph - N/A   Clear
9:15 AM 36.0 °F 28.5 °F 9.3 °F 33% 30.21 in 10.0 mi NW 10.4 mph 16.1 mph N/A   Clear
9:35 AM 35.6 °F 28.0 °F 9.5 °F 34% 30.22 in 10.0 mi NW 10.4 mph - N/A   Clear
9:55 AM 36.9 °F 28.7 °F 10.4 °F 34% 30.23 in 10.0 mi NW 12.7 mph 18.4 mph N/A   Clear
10:15 AM 38.7 °F 28.6 °F 10.4 °F 31% 30.23 in 10.0 mi NNW 20.7 mph 25.3 mph N/A   Clear
10:35 AM 39.7 °F 29.7 °F 11.1 °F 31% 30.24 in 10.0 mi NNW 21.9 mph 27.6 mph N/A   Clear
10:55 AM 40.3 °F 30.2 °F 11.3 °F 31% 30.25 in 10.0 mi NNW 23.0 mph 29.9 mph N/A   Clear
11:15 AM 39.6 °F 29.2 °F 11.8 °F 32% 30.26 in 10.0 mi NNW 23.0 mph 28.8 mph N/A   Clear
11:35 AM 39.2 °F 29.3 °F 12.4 °F 33% 30.27 in 10.0 mi North 20.7 mph 26.5 mph N/A   Clear
11:55 AM 39.4 °F 29.8 °F 12.9 °F 34% 30.27 in 10.0 mi NNW 19.6 mph 25.3 mph N/A   Clear
12:15 PM 37.6 °F 27.4 °F 13.3 °F 37% 30.26 in 10.0 mi NNW 19.6 mph 26.5 mph N/A   Clear
12:35 PM 37.4 °F 26.9 °F 13.8 °F 38% 30.25 in 10.0 mi NNW 20.7 mph 27.6 mph N/A   Clear
12:55 PM 37.6 °F 28.1 °F 13.6 °F 38% 30.24 in 10.0 mi NNW 17.3 mph 24.2 mph N/A   Clear
1:15 PM 36.9 °F 26.8 °F 13.5 °F 38% 30.23 in 10.0 mi NNW 18.4 mph 23.0 mph N/A   Clear
1:35 PM 37.4 °F 27.5 °F 14.4 °F 39% 30.22 in 10.0 mi North 18.4 mph - N/A   Clear
1:55 PM 37.2 °F 27.3 °F 15.6 °F 41% 30.21 in 10.0 mi North 18.4 mph 24.2 mph N/A   Clear
2:15 PM 37.6 °F 28.8 °F 14.9 °F 40% 30.21 in 10.0 mi North 15.0 mph 20.7 mph N/A   Clear
2:35 PM 37.8 °F 29.4 °F 15.8 °F 41% 30.20 in 10.0 mi North 13.8 mph 24.2 mph N/A   Clear
2:55 PM 37.4 °F 29.8 °F 15.6 °F 41% 30.19 in 10.0 mi North 11.5 mph 18.4 mph N/A   Clear
3:15 PM 37.9 °F 29.2 °F 16.2 °F 41% 30.18 in 10.0 mi North 15.0 mph - N/A   Scattered Clouds
3:35 PM 34.9 °F 25.7 °F 14.0 °F 42% 30.18 in 10.0 mi NNE 13.8 mph - N/A   Scattered Clouds
3:55 PM 35.4 °F 26.0 °F 13.8 °F 41% 30.18 in 10.0 mi North 15.0 mph - N/A   Scattered Clouds
4:15 PM 34.5 °F 25.3 °F 12.6 °F 40% 30.17 in 10.0 mi North 13.8 mph - N/A   Clear
4:35 PM 32.0 °F 22.1 °F 13.5 °F 46% 30.17 in 10.0 mi NNE 13.8 mph - N/A   Clear
4:55 PM 32.5 °F 23.2 °F 13.8 °F 46% 30.18 in 10.0 mi North 12.7 mph - N/A   Scattered Clouds
5:15 PM 32.4 °F 25.3 °F 14.2 °F 47% 30.20 in 10.0 mi North 8.1 mph - N/A   Overcast
5:35 PM 31.8 °F 25.4 °F 14.7 °F 49% 30.20 in 10.0 mi NNE 6.9 mph - N/A   Mostly Cloudy
5:55 PM 29.8 °F 23.9 °F 14.2 °F 52% 30.21 in 10.0 mi North 5.8 mph - N/A   Overcast
6:15 PM 27.5 °F 23.6 °F 13.8 °F 56% 30.22 in 10.0 mi NNE 3.5 mph - N/A   Overcast
6:35 PM 27.1 °F 19.7 °F 14.2 °F 58% 30.23 in 10.0 mi North 6.9 mph - N/A   Overcast
6:55 PM 27.0 °F 18.7 °F 13.8 °F 58% 30.22 in 10.0 mi North 8.1 mph - N/A   Overcast
7:15 PM 26.4 °F 22.4 °F 13.6 °F 59% 30.23 in 10.0 mi North 3.5 mph - N/A   Overcast
7:35 PM 24.8 °F 17.9 °F 13.5 °F 62% 30.22 in 10.0 mi North 5.8 mph - N/A   Mostly Cloudy
7:55 PM 25.5 °F 18.7 °F 13.6 °F 61% 30.23 in 10.0 mi North 5.8 mph - N/A   Mostly Cloudy
8:15 PM 23.2 °F - 12.9 °F 65% 30.23 in 10.0 mi Calm Calm - N/A   Mostly Cloudy
8:35 PM 22.1 °F - 13.1 °F 68% 30.23 in 10.0 mi Calm Calm - N/A   Mostly Cloudy
8:55 PM 21.9 °F 15.7 °F 13.5 °F 70% 30.23 in 10.0 mi South 4.6 mph - N/A   Overcast
9:15 PM 20.8 °F 14.4 °F 13.1 °F 72% 30.23 in 10.0 mi South 4.6 mph - N/A   Mostly Cloudy
9:35 PM 21.0 °F 12.4 °F 13.8 °F 74% 30.23 in 10.0 mi SSW 6.9 mph - N/A   Mostly Cloudy
9:55 PM 19.6 °F 11.7 °F 14.7 °F 81% 30.23 in 10.0 mi SSW 5.8 mph - N/A   Scattered Clouds
10:15 PM 18.5 °F 10.4 °F 14.9 °F 86% 30.23 in 10.0 mi SW 5.8 mph - N/A   Clear
10:35 PM 17.8 °F 9.6 °F 14.4 °F 86% 30.23 in 10.0 mi SW 5.8 mph - N/A   Clear
10:55 PM 16.3 °F 7.8 °F 13.1 °F 87% 30.23 in 10.0 mi WSW 5.8 mph - N/A   Clear
11:15 PM 16.7 °F 8.3 °F 13.1 °F 86% 30.23 in 10.0 mi SW 5.8 mph - N/A   Clear
11:35 PM 16.5 °F 6.9 °F 13.1 °F 86% 30.22 in 10.0 mi WSW 6.9 mph - N/A   Clear
11:55 PM 16.2 °F 6.5 °F 12.9 °F 87% 30.22 in 10.0 mi WSW 6.9 mph - N/A   Clear